When you browse on this site, cookies collect data to enhance your experience and personalize the content and advertising you see.
Visit our Privacy Policy to learn more. By continuing to use the site, you agree to this use of cookies and data.
  • In Romania
  • List of Countries
  • For 7 days
  • Water Temperature
  • Satellite Maps
  • Weather Map
  • Weather Widgets
  • user-avatar
    Login

    Hourly Weather Wicklow

    Today, 19 November, Monday

    Time Temperature Precipitation Wind Pressure Humidity
    00:00 +2°C° 0 mm 6 mps 725 mmHg 78%
    01:00 +2°C° 0 mm 6 mps 724 mmHg 77%
    02:00 +2°C° 0 mm 6 mps 724 mmHg 77%
    03:00 +2°C° 0 mm 6 mps 724 mmHg 76%
    04:00 +1°C° 0 mm 6 mps 724 mmHg 78%
    05:00 +1°C° 0 mm 6 mps 723 mmHg 81%
    06:00 +1°C° 0 mm 6 mps 723 mmHg 83%
    07:00 +1°C° 0 mm 6 mps 723 mmHg 85%
    08:00 +2°C° 0 mm 6 mps 723 mmHg 86%
    09:00 +2°C° 0 mm 6 mps 723 mmHg 88%
    10:00 +2°C° 0 mm 7 mps 723 mmHg 84%
    11:00 +3°C° 0 mm 7 mps 723 mmHg 80%
    12:00 +3°C° 0 mm 7 mps 723 mmHg 76%
    13:00 +3°C° 0 mm 7 mps 723 mmHg 75%
    14:00 +3°C° 0 mm 7 mps 722 mmHg 75%
    15:00 +3°C° 0 mm 7 mps 722 mmHg 74%
    16:00 +3°C° 0 mm 7 mps 722 mmHg 75%
    17:00 +3°C° 0 mm 6 mps 722 mmHg 76%
    18:00 +3°C° 0 mm 6 mps 722 mmHg 77%
    19:00 +2°C° 0 mm 7 mps 722 mmHg 77%
    20:00 +2°C° 0 mm 7 mps 721 mmHg 77%
    21:00 +2°C° 0 mm 7 mps 721 mmHg 77%
    22:00 +2°C° 0 mm 7 mps 721 mmHg 78%
    23:00 +2°C° 0 mm 7 mps 721 mmHg 78%

    Tomorrow, 20 November, Tuesday

    Time Temperature Precipitation Wind Pressure Humidity
    00:00 0°C° 0 mm 7 mps 720 mmHg 79%
    01:00 0°C° 0.1 mm 7 mps 720 mmHg 79%
    02:00 0°C° 0.1 mm 7 mps 720 mmHg 79%
    03:00 0°C° 0.1 mm 7 mps 719 mmHg 80%
    04:00 0°C° 0.2 mm 7 mps 719 mmHg 80%
    05:00 0°C° 0.2 mm 7 mps 719 mmHg 81%
    06:00 0°C° 0.2 mm 7 mps 719 mmHg 82%
    07:00 0°C° 0.3 mm 7 mps 718 mmHg 82%
    08:00 0°C° 0.3 mm 8 mps 718 mmHg 82%
    09:00 0°C° 0.3 mm 8 mps 718 mmHg 83%
    10:00 +1°C° 0.3 mm 8 mps 718 mmHg 81%
    11:00 +1°C° 0.3 mm 8 mps 717 mmHg 79%
    12:00 +2°C° 0.3 mm 8 mps 717 mmHg 77%
    13:00 +1°C° 0.2 mm 8 mps 717 mmHg 77%
    14:00 +2°C° 0.2 mm 7 mps 716 mmHg 78%
    15:00 +2°C° 0.2 mm 7 mps 716 mmHg 79%
    16:00 +2°C° 0.2 mm 7 mps 715 mmHg 80%
    17:00 0°C° 0.2 mm 7 mps 715 mmHg 81%
    18:00 0°C° 0.2 mm 7 mps 715 mmHg 82%
    19:00 0°C° 0.3 mm 7 mps 715 mmHg 83%
    20:00 0°C° 0.3 mm 7 mps 714 mmHg 83%
    21:00 0°C° 0.3 mm 7 mps 714 mmHg 83%
    22:00 0°C° 0.5 mm 7 mps 714 mmHg 85%
    23:00 +1°C° 0.5 mm 6 mps 713 mmHg 86%

    Day after tomorrow, 21 November, Wednesday

    Time Temperature Precipitation Wind Pressure Humidity
    00:00 +1°C° 0.5 mm 6 mps 713 mmHg 87%
    01:00 +1°C° 0.6 mm 5 mps 713 mmHg 88%
    02:00 +1°C° 0.6 mm 5 mps 712 mmHg 89%
    03:00 +1°C° 0.6 mm 4 mps 712 mmHg 90%
    04:00 0°C° 0.7 mm 4 mps 711 mmHg 91%
    05:00 +1°C° 0.7 mm 3 mps 711 mmHg 91%
    06:00 +1°C° 0.7 mm 3 mps 711 mmHg 92%
    07:00 +1°C° 0.5 mm 3 mps 711 mmHg 92%
    08:00 +2°C° 0.5 mm 2 mps 711 mmHg 92%
    09:00 +2°C° 0.5 mm 2 mps 711 mmHg 92%
    10:00 +2°C° 0.4 mm 3 mps 711 mmHg 89%
    11:00 +1°C° 0.4 mm 4 mps 711 mmHg 87%
    12:00 +1°C° 0.4 mm 5 mps 711 mmHg 84%
    13:00 +1°C° 0.2 mm 5 mps 711 mmHg 84%
    14:00 +1°C° 0.2 mm 5 mps 712 mmHg 84%
    15:00 +1°C° 0.2 mm 6 mps 712 mmHg 84%
    16:00 +1°C° 0.2 mm 6 mps 712 mmHg 86%
    17:00 -1°C° 0.2 mm 6 mps 713 mmHg 88%
    18:00 -1°C° 0.2 mm 6 mps 714 mmHg 90%
    19:00 -1°C° 0.4 mm 6 mps 714 mmHg 90%
    20:00 0°C° 0.4 mm 7 mps 715 mmHg 89%
    21:00 0°C° 0.4 mm 7 mps 715 mmHg 89%
    22:00 0°C° 0.2 mm 7 mps 716 mmHg 89%
    23:00 0°C° 0.2 mm 7 mps 716 mmHg 89%

    22 November, Thursday

    Time Temperature Precipitation Wind Pressure Humidity
    00:00 +1°C° 0.2 mm 6 mps 717 mmHg 90%
    01:00 +1°C° 0.1 mm 6 mps 717 mmHg 90%
    02:00 +1°C° 0.1 mm 6 mps 717 mmHg 89%
    03:00 +1°C° 0.1 mm 6 mps 718 mmHg 89%
    04:00 +1°C° 0 mm 6 mps 718 mmHg 90%
    05:00 +1°C° 0 mm 6 mps 718 mmHg 90%
    06:00 0°C° 0 mm 5 mps 718 mmHg 90%
    07:00 0°C° 0 mm 5 mps 718 mmHg 89%
    08:00 -1°C° 0 mm 6 mps 718 mmHg 89%
    09:00 -1°C° 0 mm 6 mps 718 mmHg 88%
    10:00 +1°C° 0 mm 6 mps 718 mmHg 85%
    11:00 +1°C° 0 mm 6 mps 718 mmHg 82%
    12:00 +2°C° 0 mm 6 mps 718 mmHg 78%
    13:00 +2°C° 0 mm 5 mps 718 mmHg 79%
    14:00 +1°C° 0 mm 5 mps 718 mmHg 79%
    15:00 +1°C° 0 mm 4 mps 717 mmHg 79%
    16:00 0°C° 0 mm 4 mps 717 mmHg 81%
    17:00 -1°C° 0 mm 4 mps 717 mmHg 83%
    18:00 -1°C° 0 mm 4 mps 717 mmHg 85%
    19:00 -1°C° 0 mm 4 mps 717 mmHg 86%
    20:00 -1°C° 0 mm 4 mps 717 mmHg 87%
    21:00 -1°C° 0 mm 4 mps 717 mmHg 87%
    22:00 -1°C° 0 mm 4 mps 717 mmHg 88%
    23:00 -1°C° 0 mm 4 mps 717 mmHg 89%

    23 November, Friday

    Time Temperature Precipitation Wind Pressure Humidity
    00:00 -1°C° 0 mm 4 mps 717 mmHg 89%
    01:00 -1°C° 0 mm 4 mps 717 mmHg 89%
    02:00 -1°C° 0 mm 4 mps 717 mmHg 90%
    03:00 -1°C° 0 mm 5 mps 716 mmHg 90%
    04:00 -1°C° 0 mm 5 mps 716 mmHg 90%
    05:00 0°C° 0 mm 5 mps 716 mmHg 91%
    06:00 0°C° 0 mm 5 mps 716 mmHg 91%
    07:00 0°C° 0.1 mm 5 mps 716 mmHg 91%
    08:00 +1°C° 0.1 mm 6 mps 716 mmHg 91%
    09:00 +1°C° 0.1 mm 6 mps 716 mmHg 91%
    10:00 +2°C° 0.3 mm 6 mps 716 mmHg 90%
    11:00 +3°C° 0.3 mm 6 mps 716 mmHg 90%
    12:00 +3°C° 0.3 mm 6 mps 716 mmHg 89%
    13:00 +3°C° 0.6 mm 6 mps 716 mmHg 90%
    14:00 +3°C° 0.6 mm 6 mps 715 mmHg 91%
    15:00 +3°C° 0.6 mm 5 mps 715 mmHg 93%
    16:00 +3°C° 0.2 mm 5 mps 715 mmHg 93%
    17:00 +3°C° 0.2 mm 5 mps 715 mmHg 94%
    18:00 +3°C° 0.2 mm 4 mps 715 mmHg 94%
    19:00 +3°C° 0.1 mm 4 mps 715 mmHg 94%
    20:00 +3°C° 0.1 mm 4 mps 716 mmHg 94%
    21:00 +3°C° 0.1 mm 3 mps 716 mmHg 94%
    22:00 +2°C° 0 mm 3 mps 716 mmHg 94%
    23:00 +2°C° 0 mm 3 mps 716 mmHg 94%

    24 November, Saturday

    Time Temperature Precipitation Wind Pressure Humidity
    00:00 +2°C° 0 mm 3 mps 716 mmHg 94%
    01:00 +2°C° 0 mm 3 mps 716 mmHg 94%
    02:00 +2°C° 0 mm 3 mps 715 mmHg 94%
    03:00 +2°C° 0 mm 3 mps 715 mmHg 95%
    04:00 +2°C° 0 mm 3 mps 715 mmHg 95%
    05:00 +2°C° 0 mm 3 mps 715 mmHg 96%
    06:00 +2°C° 0 mm 3 mps 715 mmHg 96%
    07:00 +3°C° 0 mm 3 mps 715 mmHg 95%
    08:00 +3°C° 0 mm 3 mps 716 mmHg 95%
    09:00 +3°C° 0 mm 3 mps 716 mmHg 95%
    10:00 +4°C° 0 mm 3 mps 716 mmHg 92%
    11:00 +5°C° 0 mm 4 mps 716 mmHg 90%
    12:00 +5°C° 0 mm 4 mps 716 mmHg 87%
    13:00 +5°C° 0 mm 3 mps 716 mmHg 88%
    14:00 +5°C° 0 mm 3 mps 716 mmHg 89%
    15:00 +5°C° 0 mm 3 mps 716 mmHg 89%
    16:00 +4°C° 0 mm 3 mps 716 mmHg 91%
    17:00 +4°C° 0 mm 3 mps 716 mmHg 92%
    18:00 +3°C° 0 mm 3 mps 716 mmHg 93%
    19:00 +3°C° 0 mm 3 mps 716 mmHg 93%
    20:00 +4°C° 0 mm 2 mps 716 mmHg 93%
    21:00 +4°C° 0 mm 2 mps 716 mmHg 93%
    22:00 +4°C° 0 mm 2 mps 716 mmHg 93%
    23:00 +4°C° 0 mm 2 mps 716 mmHg 93%
    Show more